{"data":{"norad_id":60101,"epoch":"2026-05-25T02:43:41.805984Z","epoch_age_seconds":68289,"freshness":"FRESH","line1":"1 60101U 24117L   26145.11367831  .00000491  00000+0  28716-4 0  9992","line2":"2 60101  53.1606  42.4038 0001207  82.2515 277.8623 15.30196495108585","mean_motion":15.30196495,"eccentricity":0.0001207,"inclination_deg":53.1606,"raan_deg":42.4038,"arg_perigee_deg":82.2515,"mean_anomaly_deg":277.8623,"bstar":2.8716e-5,"rev_number":10858,"period_min":94.105561259961,"perigee_km":474.39833387958,"apogee_km":476.05273559546,"semimajor_km":6853.3625347375,"source":"CELESTRAK","updated_at":"2026-05-25T13:38:19.162047Z"}}